Skip Page Navigation
NASA JPL Caltech
NASA Logo - Jet Propulsion Laboratory + View the NASA Portal
+ Center for Near-Earth Object Studies
JPL Home Earth Solar System Stars & Galaxies Technology
JPL Solar System Dynamics
BODIES ORBITS EPHEMERIDES TOOLS PHYSICAL DATA DISCOVERY FAQ SITE MAP
JPL Small-Body Database Browser
Search: [ help ]  
125476 Frangarcia (2001 WE16)
Classification: Main-belt Asteroid          SPK-ID: 2125476
Ephemeris | Orbit Diagram | Orbital Elements | Mission Design | Physical Parameters | Discovery Circumstances | Close-Approach Data ]

[ show orbit diagram ]
Orbital Elements at Epoch 2459200.5 (2020-Dec-17.0) TDB
Reference: JPL 21 (heliocentric ecliptic J2000)
 Element Value Uncertainty (1-sigma)   Units 
e .1360414099104004 5.935e-08  
a 2.37130748390456 1.1439e-08 au
q 2.0487114704631 1.3986e-07 au
i 7.304938618584241 5.6834e-06 deg
node 44.33898095151449 3.3571e-05 deg
peri 313.0839691935673 3.7163e-05 deg
M 136.3357272622637 1.5315e-05 deg
tp 2458695.388317549924
(2019-Jul-30.88831755)
5.6982e-05 TDB
period 1333.767819584285
3.65
9.6508e-06
2.642e-08
d
yr
n .2699120451955473 1.953e-09 deg/d
Q 2.693903497346021 1.2995e-08 au
  Orbit Determination Parameters
   # obs. used (total)      551  
   data-arc span      7045 days (19.29 yr)  
   first obs. used      2001-11-12  
   last obs. used      2021-02-25  
   planetary ephem.      DE441  
   SB-pert. ephem.      SB441-N16  
   condition code      0  
   norm. resid. RMS      .53743  
   source      ORB  
   producer      Otto Matic  
   solution date      2021-Apr-13 17:29:15  

Additional Information
 Earth MOID = 1.05199 au 
 Jupiter MOID = 2.76709 au 
 T_jup = 3.521 
[ show covariance matrix ]

Ephemeris | Orbit Diagram | Orbital Elements | Mission Design | Physical Parameters | Discovery Circumstances | Close-Approach Data ]

Physical Parameter Table
Parameter Symbol Value Units Sigma Reference Notes
absolute magnitude H 16.3   n/a MPO401108  

125476 Frangarcia           Discovered 2001 Nov. 27 by R. Ferrando at Pla D´Arguines.
Amateur astronomer Francisco Garcia (b. 1959), of Lugo, Spain, a member of the M1 group, discovered the twelfth-magnitude supernova 1993J in M81 visually using a 0.25-m reflector.
NOTE: some special characters may not display properly (any characters within {} are an attempt to place the proper accent above a character)
Reference: 20090806/MPCPages.arcLast Updated: 2011-05-09

[ show close-approach data ]
Alternate Designations
 2001 WE16 = 2001 VW115 = 2003 FK61 
Ephemeris | Orbit Diagram | Orbital Elements | Mission Design | Physical Parameters | Discovery Circumstances | Close-Approach Data ]
ABOUT SSD CREDITS/AWARDS PRIVACY/COPYRIGHT GLOSSARY LINKS
FirstGov 2021-Apr-21 14:34 UT
(server date/time)  
NASA Home Page
Site Manager:   Ryan S. Park
Webmaster  Alan B. Chamberlin